Tracking 30922 objects as of 2-Jul-2025
HD Live streaming from Space Station
objects crossing your sky now

COSMOS 1247 DEB

Track COSMOS 1247 DEB now!


NORAD ID: 26786
Int'l Code: 1981-016J
Perigee: 4,799.6 km
Apogee: 34,787.7 km
Inclination: 70.2 °
Period: 702.0 minutes
Semi major axis: 26164 km
RCS: 0.4956 m2 (medium)
Launch date: February 19, 1981
Source: Commonwealth of Independent States (former USSR) (CIS)
Launch site: PLESETSK MISSILE AND SPACE COMPLEX (PKMTR)

Note: This is SATELLITE DEBRIS
Your satellite tracking list
ARIANE 44LP DEB
Track 1 satellite(s)




NASA's NSSDC Master Catalog

Two Line Element Set (TLE):
1 26786U 81016J   25179.88335857  .00000401  00000-0  00000-0 0  9991
2 26786  70.2332  37.1605 5730665 333.8835   6.0177  2.05130933217507
Source of the keplerian elements: AFSPC